Tracking 35280 objects as of 7-Sep-2026
HD Live streaming from Space Station
objects crossing your sky now

THORAD AGENA D DEB


10-day predictions


NORAD ID: 4171
Int'l Code: 1969-082AP
Launch date: September 30, 1969
Source: United States (US)
Launch site: AIR FORCE WESTERN TEST RANGE (AFWTR)

Note: This is SATELLITE DEBRIS
Your satellite tracking list
Your tracking list is empty




NASA's NSSDC Master Catalog

Two Line Element Set (TLE):
1  4171U 69082AP  26249.93284449  .00000371  00000-0  14105-3 0  9999
2  4171  70.0775 347.5816 0035239 357.3115   2.7817 14.37898701950942
Source of the keplerian elements: AFSPC